User: anonymous   Login
Location: Columbia
(38.9520°N, 92.3340°W)
Time: 22:13:24
(UTC-06:00)
Language:

Cosmos 1603 - Orbit

View from above orbital plane
View from above orbital plane
View from above satellite
View from above satellite

Ground track
Ground track

The orbit data is extracted from the following two-line orbital elements,

1 15333U 84106A   14355.13905266  .00000383  00000-0  22595-3 0  1569
2 15333 071.0248 195.7726 0018815 155.9926 343.2246 14.13965703559761
Epoch (UTC): 21 December 2014 03:20:14
Eccentricity: 0.0018815
inclination: 71.0248°
perigee height: 832 km
apogee height: 859 km
right ascension of ascending node: 195.7726°
argument of perigee: 155.9926°
revolutions per day: 14.13965703
mean anomaly at epoch: 343.2246°
orbit number at epoch: 55976

The dashed part of the orbit path shows where the satellite is in the earth's shadow,  

DLR